TimeCST,TemperatureF,Dew PointF,Humidity,Sea Level PressureIn,VisibilityMPH,Wind Direction,Wind SpeedMPH,Gust SpeedMPH,PrecipitationIn,Events,Conditions,WindDirDegrees,DateUTC
12:15 AM,68.0,53.6,60,29.96,10.0,South,18.4,23.0,N/A,,Clear,170,2012-11-10 06:15:00
12:35 AM,68.0,55.4,64,29.96,10.0,South,19.6,25.3,N/A,,Clear,170,2012-11-10 06:35:00
12:55 AM,64.4,55.4,73,29.96,10.0,SSE,18.4,25.3,N/A,,Clear,160,2012-11-10 06:55:00
1:15 AM,64.4,55.4,73,29.96,10.0,SSE,17.3,24.2,N/A,,Clear,160,2012-11-10 07:15:00
1:35 AM,64.4,55.4,73,29.96,10.0,SSE,17.3,23.0,N/A,,Clear,160,2012-11-10 07:35:00
1:55 AM,64.4,57.2,77,29.96,10.0,SSE,16.1,-,N/A,,Clear,160,2012-11-10 07:55:00
2:15 AM,64.4,59.0,83,29.96,10.0,SSE,20.7,26.5,N/A,,Clear,160,2012-11-10 08:15:00
2:35 AM,64.4,59.0,83,29.95,10.0,SSE,17.3,21.9,N/A,,Clear,160,2012-11-10 08:35:00
2:55 AM,64.4,60.8,88,29.95,10.0,South,19.6,25.3,N/A,,Clear,170,2012-11-10 08:55:00
3:15 AM,64.4,60.8,88,29.95,10.0,SSE,16.1,20.7,N/A,,Clear,160,2012-11-10 09:15:00
3:35 AM,64.4,60.8,88,29.95,10.0,SSE,15.0,18.4,N/A,,Clear,160,2012-11-10 09:35:00
4:15 AM,62.6,59.0,88,29.94,10.0,SSE,12.7,-,N/A,,Clear,150,2012-11-10 10:15:00
4:35 AM,62.6,59.0,88,29.95,10.0,SSE,13.8,-,N/A,,Scattered Clouds,160,2012-11-10 10:35:00
4:55 AM,62.6,59.0,88,29.95,10.0,SSE,12.7,-,N/A,,Mostly Cloudy,160,2012-11-10 10:55:00
5:15 AM,62.6,59.0,88,29.96,10.0,SSE,15.0,-,N/A,,Scattered Clouds,160,2012-11-10 11:15:00
5:35 AM,62.6,59.0,88,29.96,10.0,SSE,16.1,-,N/A,,Mostly Cloudy,160,2012-11-10 11:35:00
5:55 AM,62.6,59.0,88,29.96,10.0,SSE,16.1,21.9,N/A,,Scattered Clouds,160,2012-11-10 11:55:00
6:15 AM,62.6,59.0,88,29.96,10.0,SSE,15.0,21.9,N/A,,Mostly Cloudy,160,2012-11-10 12:15:00
6:35 AM,64.4,60.8,88,29.96,10.0,SSE,16.1,23.0,N/A,,Overcast,160,2012-11-10 12:35:00
6:55 AM,64.4,60.8,88,29.97,10.0,SSE,18.4,25.3,N/A,,Overcast,160,2012-11-10 12:55:00
7:15 AM,62.6,59.0,88,29.97,10.0,SSE,16.1,21.9,N/A,,Mostly Cloudy,160,2012-11-10 13:15:00
7:35 AM,62.6,59.0,88,29.97,10.0,SSE,19.6,25.3,N/A,,Mostly Cloudy,160,2012-11-10 13:35:00
7:55 AM,64.4,60.8,88,29.98,10.0,SSE,18.4,23.0,N/A,,Scattered Clouds,160,2012-11-10 13:55:00
8:15 AM,64.4,60.8,88,29.98,10.0,SSE,20.7,28.8,N/A,,Mostly Cloudy,160,2012-11-10 14:15:00
8:35 AM,64.4,60.8,88,29.98,10.0,SSE,19.6,26.5,N/A,,Mostly Cloudy,160,2012-11-10 14:35:00
8:55 AM,64.4,59.0,83,29.98,10.0,SSE,23.0,27.6,N/A,,Overcast,150,2012-11-10 14:55:00
9:15 AM,64.4,59.0,83,29.98,10.0,SSE,18.4,24.2,N/A,,Overcast,160,2012-11-10 15:15:00
9:35 AM,64.4,59.0,83,29.99,10.0,SSE,20.7,26.5,N/A,,Overcast,160,2012-11-10 15:35:00
9:55 AM,64.4,59.0,83,29.98,10.0,SSE,20.7,25.3,N/A,,Overcast,160,2012-11-10 15:55:00
10:15 AM,68.0,60.8,78,29.98,10.0,SSE,17.3,21.9,N/A,,Overcast,160,2012-11-10 16:15:00
10:35 AM,68.0,59.0,73,29.98,10.0,South,19.6,25.3,N/A,,Overcast,170,2012-11-10 16:35:00
10:55 AM,68.0,59.0,73,29.97,10.0,South,17.3,26.5,N/A,,Overcast,170,2012-11-10 16:55:00
11:15 AM,69.8,60.8,73,29.96,10.0,South,24.2,32.2,N/A,,Overcast,190,2012-11-10 17:15:00
11:35 AM,69.8,57.2,64,29.95,10.0,South,26.5,40.3,N/A,,Overcast,170,2012-11-10 17:35:00
11:55 AM,71.6,59.0,64,29.93,10.0,South,25.3,39.1,N/A,,Overcast,170,2012-11-10 17:55:00
12:15 PM,71.6,59.0,64,29.91,10.0,SSE,26.5,35.7,N/A,,Mostly Cloudy,160,2012-11-10 18:15:00
12:35 PM,71.6,57.2,60,29.90,10.0,South,25.3,35.7,N/A,,Mostly Cloudy,170,2012-11-10 18:35:00
12:55 PM,75.2,59.0,57,29.89,10.0,SSE,25.3,36.8,N/A,,Scattered Clouds,160,2012-11-10 18:55:00
1:15 PM,75.2,57.2,53,29.88,10.0,South,26.5,32.2,N/A,,Scattered Clouds,170,2012-11-10 19:15:00
1:35 PM,75.2,57.2,53,29.87,10.0,South,25.3,34.5,N/A,,Clear,170,2012-11-10 19:35:00
1:55 PM,75.2,55.4,50,29.86,10.0,SSE,19.6,31.1,N/A,,Clear,160,2012-11-10 19:55:00
2:15 PM,75.2,55.4,50,29.85,10.0,SSE,24.2,36.8,N/A,,Clear,160,2012-11-10 20:15:00
2:35 PM,77.0,55.4,47,29.84,10.0,SSE,23.0,32.2,N/A,,Clear,150,2012-11-10 20:35:00
2:55 PM,77.0,55.4,47,29.83,10.0,SSE,20.7,29.9,N/A,,Scattered Clouds,160,2012-11-10 20:55:00
3:15 PM,77.0,55.4,47,29.83,10.0,SSE,24.2,34.5,N/A,,Clear,160,2012-11-10 21:15:00
3:35 PM,77.0,55.4,47,29.83,10.0,SSE,23.0,36.8,N/A,,Clear,160,2012-11-10 21:35:00
3:55 PM,75.2,55.4,50,29.82,10.0,SSE,23.0,32.2,N/A,,Clear,150,2012-11-10 21:55:00
4:15 PM,75.2,57.2,53,29.82,10.0,SSE,26.5,33.4,N/A,,Clear,150,2012-11-10 22:15:00
4:35 PM,75.2,57.2,53,29.83,10.0,SSE,19.6,33.4,N/A,,Clear,150,2012-11-10 22:35:00
4:55 PM,73.4,57.2,57,29.82,10.0,SSE,26.5,33.4,N/A,,Clear,150,2012-11-10 22:55:00
5:15 PM,71.6,55.4,57,29.81,10.0,SSE,21.9,28.8,N/A,,Clear,150,2012-11-10 23:15:00
5:35 PM,71.6,57.2,60,29.82,10.0,SSE,18.4,25.3,N/A,,Clear,150,2012-11-10 23:35:00
5:55 PM,71.6,59.0,64,29.83,10.0,SSE,18.4,27.6,N/A,,Clear,150,2012-11-10 23:55:00
6:15 PM,71.6,57.2,60,29.83,10.0,SSE,18.4,25.3,N/A,,Clear,150,2012-11-11 00:15:00
6:35 PM,69.8,55.4,60,29.84,10.0,SSE,18.4,26.5,N/A,,Clear,150,2012-11-11 00:35:00
6:55 PM,69.8,57.2,64,29.84,10.0,SSE,16.1,23.0,N/A,,Clear,150,2012-11-11 00:55:00
7:15 PM,69.8,55.4,60,29.83,10.0,SSE,18.4,26.5,N/A,,Clear,150,2012-11-11 01:15:00
7:35 PM,69.8,55.4,60,29.83,10.0,SSE,19.6,26.5,N/A,,Clear,150,2012-11-11 01:35:00
7:55 PM,69.8,57.2,64,29.83,10.0,SSE,19.6,26.5,N/A,,Clear,150,2012-11-11 01:55:00
8:15 PM,69.8,57.2,64,29.83,10.0,SSE,20.7,31.1,N/A,,Clear,150,2012-11-11 02:15:00
8:35 PM,69.8,57.2,64,29.84,10.0,SSE,19.6,26.5,N/A,,Clear,150,2012-11-11 02:35:00
8:55 PM,69.8,59.0,68,29.84,10.0,SSE,20.7,27.6,N/A,,Clear,150,2012-11-11 02:55:00
9:15 PM,69.8,59.0,68,29.84,10.0,SSE,20.7,28.8,N/A,,Clear,160,2012-11-11 03:15:00
9:35 PM,69.8,59.0,68,29.84,10.0,SSE,21.9,31.1,N/A,,Clear,160,2012-11-11 03:35:00
9:55 PM,69.8,59.0,68,29.85,10.0,SSE,19.6,26.5,N/A,,Clear,160,2012-11-11 03:55:00
10:15 PM,69.8,59.0,68,29.84,10.0,SSE,19.6,28.8,N/A,,Clear,150,2012-11-11 04:15:00
10:35 PM,69.8,60.8,73,29.85,10.0,SSE,17.3,26.5,N/A,,Clear,150,2012-11-11 04:35:00
10:55 PM,69.8,60.8,73,29.85,10.0,SSE,17.3,23.0,N/A,,Clear,160,2012-11-11 04:55:00
11:15 PM,69.8,60.8,73,29.84,10.0,SSE,21.9,25.3,N/A,,Clear,160,2012-11-11 05:15:00
11:35 PM,69.8,60.8,73,29.82,10.0,SSE,20.7,28.8,N/A,,Clear,160,2012-11-11 05:35:00
11:55 PM,69.8,60.8,73,29.82,10.0,SSE,20.7,31.1,N/A,,Clear,160,2012-11-11 05:55:00